EUTELSAT 174A

Last updated on Sun Nov 16 2025 00:03:40 GMT+0000 (Coordinated Universal Time)

1 28924U 05052A 25319.41526162 .00000019 00000+0 00000+0 0 9992 2 28924 3.6779 79.1716 0006464 158.1251 140.9961 1.00274116 50189
UTC large
Height (km)
Speed (km/s)
/
Latitude / Longitude
Inclination (degrees)
Orbital Period (minutes)
Azimuth
Elevation
Range (km)
Doppler Factor

Next 0 passes for location: London (51.5072 / 0.1276)

Sorry there are no passes over London.